Location: Deep Valley
(39.7548°N, 80.4695°W)
Time: 14:04:11
(UTC+00:00)

ISS - Pass Details

Date: 28 November 2020
Orbit: 418 x 419 km, 51.6° (Epoch: 18 January)

Event Time Altitude Azimuth Distance (km) Brightness Sun altitude
Rises 23:14:36 0° 299° (WNW) 2,367 0.8 -14.4°
Reaches altitude 10° 23:18:00 10° 336° (NNW) 1,502 -0.8 -15.0°
Maximum altitude 23:19:08 11° 355° (N) 1,426 -1.2 -15.2°
Enters shadow 23:19:55 11° 9° (N) 1,462 -1.3 -15.4°
